Danville, VA

1:00 PM EDT on October 20, 2017 (GMT -0400)
Danville Regional

Weather History for KDAN - March, 2013

Change the Weather History Date:

Wednesday, March 20, 2013

  Actual Average Record
Temperature  
Mean Temperature 43 °F 50 °F  
Max Temperature 57 °F 60 °F 83 °F (2012)
Min Temperature 29 °F 39 °F 21 °F (1993)
Degree Days  
Heating Degree Days 22 15  
Month to date heating degree days 413 363  
Since 1 July heating degree days 3208 3364  
Cooling Degree Days 0 0  
Month to date cooling degree days 0 0  
Year to date cooling degree days 2 0  
Moisture  
Dew Point 11 °F    
Average Humidity 28    
Maximum Humidity 41    
Minimum Humidity 14    
Precipitation  
Precipitation 0.00 in 0.14 in 2.09 in (2003)
Month to date precipitation 1.54 2.39  
Year to date precipitation 11.35 8.82  
Snow  
Snow 0.00 in - - ()
Month to date snowfall T  
Since 1 July snowfall 1.7  
Snow Depth 0.00 in    
Sea Level Pressure  
Sea Level Pressure 29.94 in    
Wind  
Wind Speed 7 mph (West)    
Max Wind Speed 24 mph    
Max Gust Speed 38 mph    
Visibility 10 miles    
Events      
T = Trace of Precipitation, MM = Missing Value Source: NWS Daily Summary

Daily Weather History Graph

Daily Weather History Graph

Search for Another Location

Airport or City:

Trip Planner

Search our weather history database for the weather conditions in past years. The results will help you decide how hot, cold, wet, or windy it might be!

Date:

Astronomy

Mar. 20, 2013 Rise Set
Actual Time 7:20 AM EDT 7:29 PM EDT
Civil Twilight 6:54 AM EDT 7:55 PM EDT
Nautical Twilight 6:24 AM EDT 8:25 PM EDT
Astronomical Twilight 5:54 AM EDT 8:55 PM EDT
Moon 1:11 PM EDT 2:50 AM EDT
Length of Visible Light 13h 00m
Length of Day
12h 08m
First Quarter, 59% of the Moon is Illuminated
Mar 20
First Quarter
Mar 27
Full
Apr 3
Last Quarter
Apr 10
New
Apr 18
First Quarter

Hourly Weather History & Observations

Time (EDT) Temp. Windchill Dew Point Humidity Pressure Visibility Wind Dir Wind Speed Gust Speed Precip Events Conditions
12:53 AM 46.9 °F - -0.0 °F 14% 30.02 in 10.0 mi WNW 6.9 mph - N/A   Clear
1:53 AM 44.1 °F 40.8 °F 1.9 °F 17% 30.02 in 10.0 mi WNW 5.8 mph - N/A   Clear
2:53 AM 43.0 °F 39.5 °F 3.0 °F 19% 30.02 in 10.0 mi WNW 5.8 mph - N/A   Clear
3:53 AM 42.1 °F 37.1 °F 5.0 °F 22% 30.02 in 10.0 mi NW 8.1 mph - N/A   Clear
4:53 AM 39.0 °F 36.8 °F 7.0 °F 27% 30.01 in 10.0 mi NW 3.5 mph - N/A   Clear
5:53 AM 39.9 °F 35.8 °F 7.0 °F 26% 30.02 in 10.0 mi WNW 5.8 mph - N/A   Clear
6:53 AM 33.1 °F 28.7 °F 12.0 °F 42% 30.04 in 10.0 mi SSW 4.6 mph - N/A   Clear
7:53 AM 36.0 °F 32.1 °F 12.0 °F 37% 30.06 in 10.0 mi West 4.6 mph - N/A   Clear
8:53 AM 37.9 °F 34.4 °F 14.0 °F 38% 30.07 in 10.0 mi SSW 4.6 mph - N/A   Clear
9:53 AM 45.0 °F 39.3 °F 10.0 °F 24% 30.07 in 10.0 mi NW 11.5 mph - N/A   Clear
11:53 AM 51.1 °F - 12.9 °F 22% 30.05 in 10.0 mi NW 10.4 mph - N/A   Clear
12:53 PM 52.0 °F - 12.0 °F 20% 30.01 in 10.0 mi Variable 6.9 mph 17.3 mph N/A   Clear
1:53 PM 54.0 °F - 12.9 °F 20% 29.96 in 10.0 mi NW 6.9 mph 19.6 mph N/A   Clear
2:53 PM 55.0 °F - 10.0 °F 17% 29.91 in 10.0 mi West 8.1 mph 20.7 mph N/A   Clear
3:53 PM 57.0 °F - 10.9 °F 16% 29.86 in 10.0 mi WSW 15.0 mph 21.9 mph N/A   Clear
4:53 PM 55.9 °F - 10.0 °F 16% 29.83 in 10.0 mi SW 10.4 mph 23.0 mph N/A   Clear
5:53 PM 54.0 °F - 12.0 °F 19% 29.81 in 10.0 mi SW 9.2 mph - N/A   Overcast
6:53 PM 51.1 °F - 14.0 °F 23% 29.81 in 10.0 mi WSW 8.1 mph - N/A   Scattered Clouds
7:53 PM 51.1 °F - 14.0 °F 23% 29.80 in 10.0 mi SSW 3.5 mph - N/A   Mostly Cloudy
8:53 PM 50.0 °F - 15.1 °F 25% 29.80 in 10.0 mi SSW 3.5 mph - N/A   Mostly Cloudy
9:53 PM 48.9 °F - 17.1 °F 28% 29.79 in 10.0 mi SW 5.8 mph - N/A   Overcast
10:53 PM 51.1 °F - 16.0 °F 25% 29.79 in 10.0 mi WSW 11.5 mph 38.0 mph N/A   Overcast
11:53 PM 48.9 °F - 19.9 °F 32% 29.76 in 10.0 mi SW 9.2 mph - N/A   Mostly Cloudy